QPF
0.00 0.00 0.00 0.00 0.00 0.00 0.00 0.00 0.00 0.00 0.00 0.00 0.00 0.00 0.00 0.00 0.00 0.00 0.00 0.00 0.00 0.00 0.00 0.00 0.00 0.00 0.00 0.00 0.00 0.00 0.00 0.00 0.00 0.00 0.00 0.00 0.00 0.00 0.00 0.00 0.00 0.00 0.00 0.00 0.00
0.00 0.00 0.00 0.00 0.00 0.00 0.00 0.00 0.00 0.00 0.00 0.00 0.00 0.00 0.00 0.00 0.00 0.00 0.00 0.00 0.00 0.00 0.00 0.00 0.00 0.00 0.00 0.00 0.00 0.00 0.00 0.00 0.00 0.00 0.00 0.00 0.00 0.00 0.00 0.00 0.00 0.00 0.00 0.00 0.00
0.00 0.00 0.00 0.00 0.00 0.00 0.00 0.00 0.00 0.00 0.00 0.00 0.00 0.00 0.00 0.00 0.00 0.00 0.00 0.00 0.00 0.00 0.00 0.00 0.00 0.00 0.00 0.00 0.00 0.00 0.00 0.00 0.00 0.00 0.00 0.00 0.00 0.00 0.00 0.00 0.00 0.00 0.00 0.00 0.00
0.00 0.00 0.00 0.00 0.00 0.00 0.00 0.00 0.00 0.00 0.00 0.00 0.00 0.00 0.00 0.00 0.00 0.00 0.00 0.00 0.00 0.00 0.00 0.00 0.00 0.00 0.00 0.00 0.00 0.00 0.00 0.00 0.00 0.00 0.00 0.00 0.00 0.00 0.00 0.00 0.00 0.00 0.00 0.00 0.00
0.00 0.00 0.00 0.00 0.00 0.00 0.00 0.00 0.00 0.00 0.00 0.00 0.00 0.00 0.00 0.00 0.00 0.00 0.00 0.00 0.00 0.00 0.00 0.00 0.00 0.00 0.00 0.00 0.00 0.00 0.00 0.00 0.00 0.00 0.00 0.00 0.00 0.00 0.00 0.00 0.00 0.00 0.00 0.00 0.00
0.00 0.00 0.00 0.00 0.00 0.00 0.00 0.00 0.00 0.00 0.00 0.00 0.00 0.00 0.00 0.00 0.00 0.00 0.00 0.00 0.00 0.00 0.00 0.00 0.00 0.00 0.00 0.00 0.00 0.00 0.00 0.00 0.00 0.00 0.00 0.00 0.00 0.00 0.00 0.00 0.00 0.00 0.00 0.00 0.00
0.00 0.00 0.00 0.00 0.00 0.00 0.00 0.00 0.00 0.00 0.00 0.00 0.00 0.00 0.00 0.00 0.00 0.00 0.00 0.00 0.00 0.00 0.00 0.00 0.00 0.00 0.00 0.00 0.00 0.00 0.00 0.00 0.00 0.00 0.00 0.00 0.00 0.00 0.00 0.00 0.00 0.00 0.00 0.00 0.00
0.00 0.00 0.00 0.00 0.00 0.00 0.00 0.00 0.00 0.00 0.00 0.00 0.00 0.00 0.00 0.00 0.00 0.00 0.00 0.00 0.00 0.00 0.00 0.00 0.00 0.00 0.00 0.00 0.00 0.00 0.00 0.00 0.00 0.00 0.00 0.00 0.00 0.00 0.00 0.00 0.00 0.00 0.00 0.00 0.00
0.00 0.00 0.00 0.00 0.00 0.00 0.00 0.00 0.00 0.00 0.00 0.00 0.00 0.00 0.00 0.00 0.00 0.00 0.00 0.00 0.00 0.00 0.00 0.00 0.00 0.00 0.00 0.00 0.00 0.00 0.00 0.00 0.00 0.00 0.00 0.00 0.00 0.00 0.00 0.00 0.00 0.00 0.00 0.00 0.00
0.00 0.00 0.00 0.00 0.00 0.00 0.00 0.00 0.00 0.00 0.00 0.00 0.00 0.00 0.00 0.00 0.00 0.00 0.00 0.00 0.00 0.00 0.00 0.00 0.00 0.00 0.00 0.00 0.00 0.00 0.00 0.00 0.00 0.00 0.00 0.00 0.00 0.00 0.00 0.00 0.00 0.00 0.00 0.00 0.00
0.00 0.00 0.00 0.00 0.00 0.00 0.00 0.00 0.00 0.00 0.00 0.00 0.00 0.00 0.00 0.00 0.00 0.00 0.00 0.00 0.00 0.00 0.00 0.00 0.00 0.00 0.00 0.00 0.00 0.00 0.00 0.00 0.00 0.00 0.00 0.00 0.00 0.00 0.00 0.00 0.00 0.00 0.00 0.00 0.00
0.00 0.00 0.00 0.00 0.00 0.00 0.00 0.00 0.00 0.00 0.00 0.00 0.00 0.00 0.00 0.00 0.00 0.00 0.00 0.00 0.00 0.00 0.00 0.00 0.00 0.00 0.00 0.00 0.00 0.00 0.00 0.00 0.00 0.00 0.00 0.00 0.00 0.00 0.00 0.00 0.00 0.00 0.00 0.00 0.00
0.00 0.00 0.00 0.00 0.00 0.00 0.00 0.00 0.00 0.00 0.00 0.00 0.00 0.00 0.00 0.00 0.00 0.00 0.00 0.00 0.00 0.00 0.00 0.00 0.00 0.00 0.00 0.00 0.00 0.00 0.00 0.00 0.00 0.00 0.00 0.00 0.00 0.00 0.00 0.00 0.00 0.00 0.00 0.00 0.00
0.00 0.00 0.00 0.00 0.00 0.00 0.00 0.00 0.00 0.00 0.00 0.00 0.00 0.00 0.00 0.00 0.00 0.00 0.00 0.00 0.00 0.00 0.00 0.00 0.00 0.00 0.00 0.00 0.00 0.00 0.00 0.00 0.00 0.00 0.00 0.00 0.00 0.00 0.00 0.00 0.00 0.00 0.00 0.00 0.00
0.00 0.00 0.00 0.00 0.00 0.00 0.00 0.00 0.00 0.00 0.00 0.00 0.00 0.00 0.00 0.00 0.00 0.00 0.00 0.00 0.00 0.00 0.00 0.00 0.00 0.00 0.00 0.00 0.00 0.00 0.00 0.00 0.00 0.00 0.00 0.00 0.00 0.00 0.00 0.00 0.00 0.00 0.00 0.00 0.00
0.00 0.00 0.00 0.00 0.00 0.00 0.00 0.00 0.00 0.00 0.00 0.00 0.00 0.00 0.00 0.00 0.00 0.00 0.00 0.00 0.00 0.00 0.00 0.00 0.00 0.00 0.00 0.00 0.00 0.00 0.00 0.00 0.00 0.00 0.00 0.00 0.00 0.00 0.00 0.00 0.00 0.00 0.00 0.00 0.00
0.00 0.00 0.00 0.00 0.00 0.00 0.00 0.00 0.01 0.01 0.00 0.00 0.00 0.00 0.00 0.00 0.00 0.00 0.00 0.00 0.00 0.00 0.00 0.00 0.00 0.00 0.00 0.00 0.00 0.00 0.00 0.00 0.00 0.00 0.00 0.00 0.00 0.00 0.00 0.00 0.00 0.00 0.00 0.00 0.00
0.00 0.00 0.00 0.00 0.00 0.00 0.00 0.00 0.00 0.00 0.00 0.00 0.00 0.00 0.00 0.00 0.00 0.00 0.00 0.00 0.00 0.00 0.00 0.00 0.00 0.00 0.00 0.00 0.00 0.00 0.00 0.00 0.00 0.00 0.00 0.00 0.00 0.00 0.00 0.00 0.00 0.00 0.00 0.00 0.00
0.00 0.00 0.00 0.00 0.00 0.00 0.00 0.00 0.00 0.00 0.00 0.00 0.00 0.00 0.00 0.00 0.00 0.00 0.00 0.00 0.00 0.00 0.00 0.00 0.00 0.00 0.00 0.00 0.00 0.00 0.00 0.00 0.00 0.00 0.00 0.00 0.00 0.00 0.00 0.00 0.00 0.00 0.00 0.00 0.00
0.00 0.00 0.00 0.00 0.00 0.01 0.01 0.00 0.00 0.00 0.00 0.00 0.00 0.00 0.00 0.00 0.00 0.00 0.00 0.00 0.00 0.00 0.00 0.00 0.00 0.00 0.00 0.00 0.00 0.00 0.00 0.00 0.00 0.00 0.00 0.00 0.00 0.00 0.00 0.00 0.00 0.00 0.00 0.00 0.00
0.00 0.00 0.00 0.00 0.01 0.02 0.00 0.00 0.00 0.00 0.00 0.00 0.00 0.00 0.00 0.00 0.00 0.00 0.00 0.00 0.00 0.00 0.00 0.00 0.00 0.00 0.00 0.00 0.00 0.00 0.00 0.00 0.00 0.00 0.00 0.00 0.00 0.00 0.00 0.00 0.00 0.00 0.00 0.00 0.00
0.00 0.00 0.00 0.00 0.00 0.00 0.00 0.00 0.00 0.00 0.00 0.00 0.00 0.00 0.00 0.00 0.00 0.00 0.00 0.00 0.00 0.00 0.00 0.00 0.00 0.00 0.00 0.00 0.00 0.00 0.00 0.00 0.00 0.00 0.00 0.00 0.00 0.00 0.00 0.00 0.00 0.00 0.00 0.00 0.00
0.00 0.00 0.00 0.00 0.00 0.00 0.00 0.00 0.00 0.00 0.00 0.00 0.00 0.00 0.00 0.00 0.00 0.00 0.00 0.00 0.00 0.00 0.00 0.00 0.00 0.00 0.00 0.00 0.00 0.00 0.00 0.00 0.00 0.00 0.00 0.00 0.00 0.00 0.00 0.00 0.00 0.00 0.00 0.00 0.00
0.00 0.00 0.00 0.00 0.00 0.00 0.00 0.00 0.00 0.00 0.00 0.00 0.00 0.00 0.00 0.00 0.00 0.00 0.00 0.00 0.00 0.00 0.00 0.00 0.00 0.00 0.00 0.00 0.00 0.00 0.00 0.00 0.00 0.00 0.00 0.00 0.00 0.00 0.00 0.00 0.00 0.00 0.00 0.00 0.00
0.01 0.00 0.00 0.00 0.00 0.00 0.00 0.00 0.00 0.00 0.00 0.00 0.00 0.00 0.00 0.00 0.00 0.00 0.00 0.00 0.00 0.00 0.00 0.00 0.00 0.00 0.00 0.00 0.00 0.00 0.00 0.00 0.00 0.00 0.00 0.00 0.00 0.00 0.00 0.00 0.00 0.00 0.00 0.00 0.00
0.01 0.00 0.00 0.00 0.00 0.00 0.00 0.00 0.00 0.00 0.00 0.00 0.00 0.00 0.00 0.00 0.00 0.00 0.00 0.00 0.00 0.00 0.00 0.00 0.00 0.00 0.00 0.00 0.00 0.00 0.00 0.00 0.00 0.00 0.00 0.00 0.00 0.00 0.00 0.00 0.00 0.00 0.00 0.00 0.00
0.00 0.01 0.00 0.00 0.00 0.00 0.00 0.00 0.00 0.00 0.00 0.00 0.00 0.00 0.00 0.00 0.00 0.00 0.00 0.00 0.00 0.00 0.00 0.00 0.00 0.00 0.00 0.00 0.00 0.00 0.00 0.00 0.00 0.00 0.00 0.00 0.00 0.00 0.00 0.00 0.00 0.00 0.00 0.00 0.00
MSLP
1018.09 1017.95 1017.84 1017.70 1017.47 1017.13 1016.77 1016.37 1016.04 1015.75 1015.25 1014.68 1014.04 1013.33 1012.65 1012.24 1010.93 1009.68 1009.91 1009.47 1009.37 1009.16 1008.91 1008.58 1008.27 1008.03 1008.06 1008.15 1007.66 1007.78 1008.93 1008.66 1007.45 1005.70 1005.07 1003.88 1003.79 1003.74 1003.51 1003.83 1004.25 1004.69 1005.36 1005.80 1007.67
1018.00 1017.85 1017.76 1017.70 1017.43 1017.09 1016.78 1016.36 1015.78 1015.42 1015.03 1014.49 1013.82 1013.18 1012.25 1012.35 1011.38 1009.95 1009.46 1009.11 1009.14 1008.92 1008.71 1008.75 1008.41 1007.88 1008.21 1007.82 1007.81 1007.92 1008.08 1007.55 1006.56 1005.33 1004.93 1004.45 1003.90 1003.92 1004.25 1004.18 1004.09 1004.87 1005.90 1006.80 1007.89
1017.88 1017.83 1017.73 1017.57 1017.26 1016.96 1016.63 1016.43 1015.78 1015.25 1014.82 1014.38 1013.86 1013.05 1011.96 1012.15 1011.35 1009.69 1009.08 1009.03 1008.92 1008.72 1008.65 1008.60 1008.21 1007.95 1007.66 1007.44 1007.29 1007.26 1007.14 1006.36 1005.61 1005.02 1004.30 1004.28 1004.22 1004.38 1004.53 1004.62 1004.49 1004.99 1006.10 1006.86 1007.71
1017.81 1017.61 1017.66 1017.43 1017.09 1016.89 1016.53 1016.27 1015.72 1015.20 1014.74 1014.28 1013.76 1013.17 1011.85 1011.71 1010.77 1009.02 1008.65 1008.66 1008.53 1008.55 1008.67 1008.23 1008.04 1008.03 1007.90 1007.62 1006.78 1006.82 1005.90 1005.68 1005.16 1004.64 1004.47 1004.69 1004.71 1004.69 1004.71 1004.73 1004.78 1005.03 1005.74 1006.65 1007.39
1017.50 1017.44 1017.45 1017.34 1017.00 1016.81 1016.47 1015.93 1015.55 1015.07 1014.64 1014.28 1013.75 1013.28 1012.14 1011.25 1009.24 1008.35 1008.41 1008.30 1008.40 1008.36 1008.31 1008.07 1007.88 1007.79 1007.82 1007.35 1006.88 1006.29 1005.73 1005.19 1004.86 1004.77 1004.37 1004.56 1004.97 1005.08 1004.79 1004.41 1004.41 1004.60 1005.28 1005.94 1006.44
1017.29 1017.11 1017.24 1017.17 1016.93 1016.59 1016.17 1015.62 1015.26 1014.79 1014.47 1014.21 1013.88 1013.44 1012.89 1010.76 1007.95 1008.18 1007.93 1008.09 1008.09 1007.97 1007.85 1007.65 1007.76 1007.70 1007.66 1007.39 1007.16 1006.38 1005.86 1005.45 1005.05 1004.71 1004.66 1004.77 1004.85 1004.81 1004.40 1004.02 1004.08 1004.19 1004.57 1004.92 1005.34
1017.11 1017.01 1016.94 1016.95 1016.80 1016.41 1015.95 1015.29 1014.71 1014.31 1014.13 1013.93 1013.87 1013.37 1012.46 1009.87 1008.11 1007.91 1007.99 1007.98 1007.83 1007.74 1007.76 1007.57 1007.60 1007.98 1007.96 1007.63 1006.94 1006.72 1006.56 1005.91 1005.12 1004.70 1004.60 1004.68 1004.90 1004.68 1003.94 1003.91 1004.05 1004.17 1004.46 1004.69 1004.82
1016.98 1016.94 1016.66 1016.74 1016.64 1016.23 1015.85 1015.06 1014.06 1013.58 1013.71 1013.57 1013.64 1013.11 1011.26 1008.50 1008.07 1008.08 1007.71 1007.78 1007.74 1007.61 1007.62 1007.63 1007.80 1008.14 1008.11 1007.64 1007.27 1007.30 1006.95 1006.45 1004.38 1004.19 1004.48 1004.72 1005.01 1004.48 1003.70 1003.72 1004.41 1004.40 1004.63 1004.75 1004.83
1016.56 1016.77 1016.61 1016.44 1016.43 1016.01 1015.61 1014.71 1013.22 1012.92 1012.83 1013.18 1013.40 1012.47 1010.31 1008.35 1008.24 1007.83 1007.87 1007.80 1007.85 1007.71 1007.66 1007.77 1007.85 1008.15 1007.94 1007.91 1007.91 1007.47 1007.08 1006.54 1004.81 1003.97 1004.60 1004.85 1005.20 1004.60 1004.18 1004.34 1004.39 1004.39 1004.54 1004.88 1005.54
1016.12 1016.42 1016.49 1016.26 1016.23 1015.82 1015.38 1014.04 1011.93 1012.56 1012.05 1012.64 1012.38 1012.15 1009.65 1008.17 1007.89 1007.65 1007.72 1007.98 1008.18 1008.24 1008.28 1008.18 1008.49 1008.40 1008.22 1008.37 1008.07 1007.59 1007.17 1006.66 1006.08 1005.31 1004.97 1005.35 1005.43 1004.90 1004.15 1004.42 1004.43 1004.56 1004.64 1005.07 1006.05
1015.62 1015.97 1016.20 1016.15 1016.03 1015.77 1015.56 1014.15 1012.64 1012.68 1012.14 1012.25 1011.29 1009.99 1008.79 1008.07 1007.68 1007.39 1007.44 1007.79 1008.32 1008.63 1008.97 1008.73 1008.95 1008.47 1007.96 1007.68 1007.36 1007.20 1007.10 1006.82 1005.90 1005.23 1005.31 1005.45 1005.41 1005.01 1004.48 1004.11 1004.07 1004.36 1005.02 1005.43 1006.36
1015.15 1015.55 1015.82 1016.08 1015.87 1015.79 1016.12 1015.06 1013.35 1013.43 1012.37 1011.16 1009.31 1008.84 1008.28 1008.33 1008.22 1007.45 1007.29 1008.02 1008.40 1008.84 1009.11 1009.35 1008.71 1007.67 1007.37 1007.00 1007.09 1007.06 1007.10 1006.88 1006.26 1005.83 1005.96 1005.92 1005.67 1004.85 1004.31 1003.78 1003.57 1003.80 1004.73 1006.06 1006.71
1014.78 1015.21 1015.43 1015.91 1015.94 1015.69 1015.38 1014.07 1012.70 1013.06 1013.16 1009.51 1007.99 1007.54 1007.63 1008.14 1008.07 1007.57 1007.54 1007.65 1008.00 1008.44 1008.82 1008.89 1007.74 1007.24 1007.29 1007.10 1006.94 1006.97 1007.05 1007.11 1007.18 1006.71 1006.41 1006.40 1005.79 1004.75 1003.60 1003.43 1003.07 1003.09 1004.23 1005.76 1006.47
1014.25 1014.85 1015.22 1015.78 1016.22 1014.80 1014.36 1012.75 1012.71 1013.15 1013.07 1009.07 1007.55 1007.32 1007.71 1007.95 1007.89 1007.23 1007.44 1007.80 1007.68 1007.77 1007.79 1008.17 1007.37 1007.27 1007.18 1007.14 1006.93 1006.87 1006.84 1007.13 1007.49 1007.96 1008.10 1007.58 1006.79 1005.61 1003.86 1003.43 1004.14 1004.27 1005.39 1006.17 1007.08
1013.80 1014.44 1014.81 1015.38 1015.40 1014.28 1013.65 1012.68 1012.93 1013.28 1012.55 1008.09 1007.51 1007.06 1007.25 1007.95 1007.50 1007.39 1007.28 1007.57 1007.45 1007.53 1007.85 1007.58 1006.86 1006.92 1006.80 1006.59 1006.57 1006.78 1007.01 1007.67 1008.27 1008.72 1008.96 1007.91 1008.15 1005.40 1004.19 1003.94 1004.85 1005.53 1005.99 1006.85 1007.61
1013.11 1014.01 1014.55 1015.52 1015.57 1014.22 1013.59 1013.19 1013.37 1013.86 1011.72 1008.29 1007.48 1007.46 1007.68 1007.65 1007.27 1007.45 1007.53 1007.68 1007.50 1007.35 1007.26 1006.95 1006.27 1006.30 1005.75 1005.83 1006.13 1006.59 1007.28 1007.93 1008.39 1008.95 1009.68 1007.87 1008.30 1006.19 1004.72 1004.04 1005.06 1005.94 1006.80 1007.55 1008.39
1012.60 1013.53 1014.05 1013.99 1013.98 1013.74 1013.84 1014.14 1014.51 1012.80 1010.14 1008.37 1007.62 1007.37 1007.59 1007.33 1007.35 1007.22 1007.63 1007.71 1007.79 1007.89 1007.30 1006.80 1006.21 1005.51 1005.30 1005.85 1006.28 1006.85 1007.87 1008.98 1009.23 1009.63 1009.01 1007.96 1007.56 1005.65 1004.51 1003.81 1003.93 1005.23 1006.56 1007.54 1008.37
1011.88 1013.20 1013.41 1013.27 1013.05 1013.51 1014.29 1015.12 1013.77 1011.22 1009.57 1008.08 1007.63 1007.73 1007.60 1007.38 1006.96 1006.94 1007.29 1007.60 1007.32 1007.34 1007.35 1007.14 1006.17 1005.24 1004.99 1005.33 1006.06 1006.97 1008.00 1009.51 1009.79 1009.77 1009.08 1008.58 1007.36 1005.72 1004.75 1004.39 1004.83 1005.84 1006.72 1007.75 1008.64
1011.54 1012.42 1012.57 1012.51 1012.94 1013.47 1014.43 1013.45 1010.77 1010.53 1009.53 1008.69 1008.25 1008.28 1007.92 1007.28 1007.17 1006.79 1006.89 1007.06 1006.90 1006.85 1007.31 1006.94 1006.27 1005.49 1005.22 1005.69 1006.31 1007.14 1007.93 1008.55 1009.44 1009.69 1009.29 1008.29 1006.89 1006.16 1005.47 1005.58 1005.87 1006.52 1007.25 1007.99 1008.45
1010.58 1010.75 1010.38 1011.11 1012.41 1013.42 1013.38 1010.16 1009.86 1009.22 1008.94 1008.84 1008.77 1008.44 1008.03 1007.73 1007.61 1007.00 1006.83 1006.63 1006.67 1006.84 1006.98 1007.20 1006.81 1006.35 1005.96 1006.03 1006.31 1006.85 1007.68 1008.96 1009.91 1010.52 1009.97 1008.48 1007.59 1006.62 1006.56 1006.47 1006.81 1007.33 1007.70 1008.25 1008.68
1009.44 1009.95 1008.23 1009.77 1011.73 1012.20 1009.45 1008.69 1009.07 1008.77 1008.68 1008.83 1008.41 1008.37 1008.18 1008.04 1007.72 1007.63 1007.16 1007.04 1007.34 1007.79 1008.16 1008.87 1008.57 1007.70 1007.20 1007.06 1007.31 1007.62 1008.09 1009.00 1009.97 1010.76 1010.51 1009.78 1008.20 1006.89 1006.75 1006.82 1007.20 1007.70 1007.91 1008.16 1008.40
1008.91 1009.07 1007.88 1008.53 1009.78 1009.15 1007.12 1007.74 1007.86 1007.65 1008.38 1008.39 1008.14 1008.28 1008.36 1008.43 1008.21 1008.03 1007.86 1008.01 1008.37 1009.06 1010.06 1010.71 1010.51 1009.86 1008.97 1008.32 1007.98 1008.00 1008.42 1009.04 1009.61 1010.03 1009.90 1009.97 1006.29 1006.22 1006.37 1006.60 1006.99 1007.43 1007.69 1007.87 1007.94
1008.58 1008.72 1008.06 1007.34 1006.82 1006.63 1006.65 1007.17 1007.48 1007.41 1007.60 1008.01 1008.05 1008.02 1008.53 1008.97 1008.94 1008.75 1008.79 1009.02 1009.44 1010.00 1010.57 1011.22 1011.90 1011.60 1009.98 1008.99 1008.31 1008.77 1008.25 1008.56 1009.04 1009.26 1009.29 1009.81 1007.10 1006.36 1006.50 1006.80 1006.95 1007.43 1007.78 1007.87 1008.11
1008.11 1009.24 1008.68 1007.24 1006.52 1005.72 1006.25 1005.83 1006.54 1006.73 1006.93 1007.20 1007.44 1008.04 1008.48 1008.75 1008.75 1008.98 1009.51 1010.02 1010.40 1011.08 1011.31 1011.45 1012.52 1011.97 1010.66 1009.63 1009.28 1009.42 1008.95 1009.10 1009.61 1009.58 1008.43 1007.58 1006.46 1007.20 1006.59 1006.98 1007.25 1007.45 1007.62 1007.66 1007.69
1007.49 1007.90 1007.64 1007.47 1006.59 1006.06 1006.09 1005.49 1005.35 1005.52 1006.13 1006.71 1007.03 1007.48 1008.07 1008.81 1008.81 1009.04 1009.88 1011.15 1011.73 1011.94 1012.58 1012.49 1012.59 1012.32 1011.23 1010.70 1010.41 1009.62 1009.04 1009.72 1009.52 1008.62 1008.94 1005.68 1006.82 1006.49 1006.63 1006.82 1006.99 1007.09 1007.24 1007.34 1007.60
1006.83 1007.13 1007.47 1007.03 1006.49 1006.15 1005.20 1004.27 1004.51 1005.15 1005.25 1005.42 1005.81 1006.77 1007.71 1007.42 1007.82 1008.85 1009.85 1010.88 1011.63 1012.93 1013.26 1013.29 1012.97 1012.76 1011.58 1011.31 1010.65 1009.79 1008.08 1008.64 1008.21 1007.91 1007.70 1006.80 1004.75 1006.13 1005.89 1006.23 1006.47 1006.80 1007.08 1007.54 1008.06
1006.03 1005.80 1006.16 1005.91 1005.96 1006.02 1005.17 1004.65 1004.08 1004.67 1004.38 1004.38 1005.29 1006.22 1006.82 1006.23 1007.63 1008.37 1009.30 1009.85 1010.62 1011.62 1012.84 1013.53 1013.64 1013.14 1011.59 1011.08 1010.56 1009.06 1006.62 1006.63 1006.31 1006.00 1006.48 1006.05 1004.16 1005.61 1005.72 1006.14 1006.26 1006.71 1007.06 1007.70 1008.31
Thickness
5707 5708 5707 5708 5710 5712 5714 5715 5714 5712 5715 5719 5723 5727 5732 5736 5746 5758 5748 5756 5757 5760 5763 5764 5765 5763 5762 5756 5764 5764 5716 5707 5724 5747 5753 5780 5774 5787 5793 5780 5783 5784 5777 5783 5774
5702 5705 5705 5705 5707 5710 5710 5712 5715 5714 5714 5718 5723 5727 5733 5733 5741 5747 5756 5758 5758 5760 5758 5752 5749 5760 5746 5749 5751 5740 5715 5724 5748 5762 5758 5767 5775 5777 5772 5770 5774 5775 5777 5777 5769
5699 5701 5702 5702 5705 5708 5710 5707 5713 5713 5714 5716 5719 5726 5734 5732 5735 5742 5755 5757 5758 5760 5758 5756 5757 5755 5747 5752 5749 5745 5725 5749 5759 5767 5773 5766 5765 5775 5766 5757 5771 5767 5768 5771 5766
5696 5699 5698 5699 5703 5703 5707 5706 5709 5712 5713 5714 5717 5721 5733 5733 5717 5747 5756 5756 5758 5758 5753 5753 5750 5741 5736 5733 5753 5737 5755 5757 5762 5771 5770 5762 5767 5761 5762 5765 5775 5773 5774 5770 5764
5692 5696 5696 5696 5699 5699 5703 5706 5706 5709 5711 5712 5714 5717 5725 5723 5734 5753 5754 5755 5755 5754 5747 5745 5743 5742 5730 5738 5744 5745 5754 5764 5765 5764 5770 5768 5756 5755 5760 5775 5782 5781 5773 5767 5768
5689 5692 5693 5693 5695 5697 5700 5704 5705 5706 5708 5708 5710 5712 5712 5708 5753 5750 5752 5751 5750 5749 5747 5749 5743 5745 5738 5738 5735 5747 5750 5752 5760 5758 5762 5755 5755 5759 5763 5778 5779 5780 5777 5776 5773
5685 5687 5689 5689 5691 5694 5697 5701 5705 5707 5706 5706 5705 5709 5705 5712 5747 5749 5747 5745 5747 5746 5738 5748 5747 5735 5735 5729 5747 5742 5729 5739 5748 5752 5753 5760 5742 5746 5767 5777 5772 5772 5771 5773 5775
5680 5682 5685 5685 5687 5690 5692 5698 5705 5710 5705 5704 5701 5704 5702 5739 5743 5741 5745 5740 5745 5745 5743 5745 5744 5733 5730 5738 5734 5723 5724 5708 5746 5754 5755 5750 5718 5749 5767 5768 5760 5763 5766 5765 5767
5677 5676 5679 5682 5683 5686 5689 5695 5706 5710 5708 5702 5697 5700 5700 5737 5727 5737 5738 5729 5733 5738 5740 5740 5736 5723 5725 5714 5703 5714 5694 5713 5728 5752 5745 5740 5724 5749 5765 5758 5756 5759 5762 5761 5751
5673 5672 5673 5677 5678 5682 5685 5694 5710 5707 5710 5702 5698 5689 5709 5717 5728 5731 5735 5729 5721 5721 5719 5719 5711 5702 5703 5698 5682 5698 5705 5709 5710 5732 5740 5726 5724 5743 5752 5749 5746 5749 5749 5754 5741
5669 5668 5669 5670 5673 5676 5678 5685 5691 5691 5699 5692 5694 5700 5712 5723 5729 5724 5728 5720 5715 5709 5689 5702 5689 5685 5698 5712 5717 5714 5708 5704 5718 5735 5726 5724 5723 5731 5741 5747 5746 5746 5742 5739 5734
5665 5664 5664 5664 5667 5668 5666 5667 5679 5675 5674 5697 5709 5707 5715 5713 5700 5715 5725 5704 5698 5683 5693 5685 5678 5706 5719 5722 5715 5711 5703 5700 5718 5731 5722 5714 5714 5732 5742 5745 5747 5748 5739 5727 5725
5658 5657 5658 5656 5658 5661 5662 5670 5682 5673 5652 5700 5716 5713 5711 5707 5696 5704 5711 5706 5697 5687 5685 5677 5700 5715 5710 5706 5703 5703 5700 5698 5701 5713 5720 5708 5704 5723 5743 5746 5745 5744 5737 5724 5721
5652 5650 5650 5648 5647 5659 5659 5679 5673 5666 5632 5687 5703 5704 5704 5701 5689 5713 5713 5703 5699 5691 5695 5688 5706 5703 5700 5695 5700 5690 5709 5705 5699 5685 5670 5697 5653 5707 5727 5732 5723 5724 5715 5712 5709
5644 5643 5643 5639 5644 5652 5662 5671 5663 5652 5599 5693 5695 5713 5706 5690 5697 5695 5711 5701 5690 5693 5691 5684 5696 5692 5690 5695 5705 5694 5704 5694 5688 5676 5666 5685 5654 5693 5714 5717 5706 5703 5704 5697 5692
5639 5635 5633 5631 5632 5644 5654 5659 5649 5613 5601 5675 5689 5685 5684 5687 5692 5693 5693 5699 5699 5693 5694 5691 5711 5705 5704 5709 5708 5705 5694 5685 5681 5669 5635 5679 5654 5670 5696 5709 5696 5695 5690 5685 5677
5632 5627 5626 5629 5632 5635 5642 5637 5605 5595 5660 5669 5676 5685 5678 5680 5680 5684 5675 5672 5664 5660 5666 5687 5693 5707 5710 5691 5701 5690 5672 5635 5639 5635 5635 5683 5662 5676 5697 5707 5705 5694 5684 5675 5669
5624 5616 5619 5624 5628 5628 5625 5606 5594 5625 5648 5679 5678 5672 5665 5675 5679 5680 5671 5662 5676 5673 5662 5654 5655 5697 5705 5687 5677 5679 5664 5632 5618 5620 5639 5665 5647 5674 5693 5700 5695 5688 5676 5668 5659
5612 5608 5610 5620 5617 5617 5606 5599 5614 5630 5650 5658 5662 5643 5651 5671 5665 5671 5667 5665 5677 5681 5657 5654 5662 5697 5696 5694 5678 5662 5647 5662 5639 5644 5625 5638 5660 5670 5672 5668 5669 5663 5658 5650 5645
5602 5604 5613 5618 5606 5601 5599 5618 5620 5644 5648 5649 5634 5645 5637 5652 5654 5658 5661 5675 5673 5676 5676 5667 5646 5676 5685 5681 5678 5663 5662 5625 5626 5605 5602 5632 5638 5639 5655 5651 5652 5642 5639 5635 5629
5597 5593 5615 5610 5598 5591 5611 5621 5625 5637 5644 5631 5632 5636 5641 5641 5650 5646 5653 5668 5665 5656 5658 5644 5643 5651 5661 5655 5648 5647 5634 5632 5623 5613 5593 5589 5609 5650 5641 5645 5637 5630 5627 5620 5616
5584 5586 5605 5601 5595 5604 5622 5626 5632 5633 5636 5630 5630 5632 5630 5635 5637 5639 5640 5650 5648 5643 5624 5622 5617 5609 5631 5645 5649 5642 5632 5627 5606 5605 5603 5582 5628 5654 5644 5639 5631 5626 5621 5616 5614
5571 5580 5582 5595 5600 5608 5621 5615 5621 5620 5622 5622 5620 5627 5627 5621 5614 5626 5632 5633 5630 5628 5618 5617 5596 5587 5613 5627 5637 5622 5634 5633 5627 5615 5605 5590 5609 5636 5632 5623 5620 5609 5604 5599 5597
5555 5555 5559 5574 5592 5609 5607 5615 5607 5621 5619 5619 5619 5616 5609 5610 5618 5612 5614 5618 5615 5611 5607 5610 5588 5597 5601 5611 5616 5605 5614 5614 5606 5577 5606 5603 5621 5614 5622 5610 5601 5596 5593 5588 5583
5539 5543 5556 5552 5575 5590 5598 5609 5610 5610 5614 5616 5608 5607 5605 5592 5601 5604 5610 5594 5592 5594 5589 5587 5579 5584 5595 5597 5594 5599 5603 5591 5588 5602 5581 5622 5599 5612 5605 5599 5593 5591 5587 5580 5571
5524 5535 5540 5555 5569 5574 5580 5603 5609 5608 5603 5608 5612 5608 5599 5605 5606 5596 5600 5583 5582 5565 5570 5568 5568 5568 5575 5582 5581 5579 5599 5591 5596 5594 5589 5597 5611 5608 5602 5594 5586 5581 5576 5567 5557
5519 5534 5539 5552 5559 5560 5577 5588 5597 5601 5604 5614 5607 5600 5594 5611 5607 5603 5591 5589 5584 5573 5559 5553 5545 5545 5565 5573 5565 5564 5600 5595 5597 5603 5589 5580 5610 5598 5588 5580 5578 5568 5562 5553 5545